DW9493 Weather Reports


Display with metric or nautical units.
time (UTC)temp
F
wind
direction
speed
MPH
gust
MPH
rain 1hr
in
rain 24hr
in
rain mn
in
humidity
%
barometer
mb
20260509021634 52 130 0.0 1.0 0.00 0.00 0.00 62 1019.5
20260509020151 53 95 0.0 1.0 0.00 0.00 0.00 64 1019.3
20260509015150 53 94 0.0 1.0 0.00 0.00 0.00 63 1019.3
20260509014150 53 95 0.0 0.0 0.00 0.00 0.00 61 1019.2
20260509013148 54 95 0.0 1.0 0.00 0.00 0.00 59 1019.3
20260509012149 54 94 0.0 3.0 0.00 0.00 0.00 57 1019.2
20260509012041 56 96 0.0 2.0 0.00 0.00 0.00 54 1019.1
20260509011225 55 95 1.0 4.0 0.00 0.00 0.00 56 1019.1
20260509005628 56 116 1.0 5.0 0.00 0.00 0.00 53 1019.1
20260509005056 56 124 1.0 6.0 0.00 0.00 0.00 53 1019.1
20260509003143 56 101 0.0 3.0 0.00 0.00 0.00 52 1019.0
20260509002144 56 105 2.0 6.0 0.00 0.00 0.00 51 1019.0
20260509001143 57 84 1.0 5.0 0.00 0.00 0.00 52 1019.1
20260509000142 57 115 1.0 4.0 0.00 0.00 0.00 51 1019.2
20260508235142 57 122 1.0 4.0 0.00 0.00 0.00 50 1019.1
20260508234141 57 36 2.0 5.0 0.00 0.00 0.00 50 1019.0
20260508233632 57 72 2.0 7.0 0.00 0.00 0.00 50 1018.8
20260508233055 58 84 2.0 7.0 0.00 0.00 0.00 48 1019.0
20260508231138 58 78 2.0 6.0 0.00 0.00 0.00 49 1018.8
20260508230139 58 122 1.0 6.0 0.00 0.00 0.00 49 1018.8
20260508225138 58 125 2.0 6.0 0.00 0.00 0.00 49 1018.8
20260508224138 59 82 1.0 6.0 0.00 0.00 0.00 47 1018.8
20260508223135 58 117 3.0 8.0 0.00 0.00 0.00 48 1018.8
20260508222135 59 32 1.0 9.0 0.00 0.00 0.00 45 1018.8
20260508221123 60 101 3.0 13.0 0.00 0.00 0.00 45 1018.8
20260508220119 60 101 2.0 7.0 0.00 0.00 0.00 46 1018.8
20260508215118 60 104 3.0 8.0 0.00 0.00 0.00 46 1018.8
20260508214118 59 142 2.0 5.0 0.00 0.00 0.00 48 1019.0
20260508213118 59 242 2.0 9.0 0.00 0.00 0.00 47 1019.0
20260508212120 60 103 2.0 10.0 0.00 0.00 0.00 47 1019.0
20260508211108 60 307 2.0 9.0 0.00 0.00 0.00 46 1019.0
20260508210039 59 331 2.0 6.0 0.00 0.00 0.00 47 1019.1
20260508205037 58 274 3.0 10.0 0.00 0.00 0.00 47 1019.3
20260508204029 59 63 3.0 11.0 0.00 0.00 0.00 48 1019.3
20260508203030 59 50 3.0 8.0 0.00 0.00 0.00 48 1019.5
20260508202027 59 25 3.0 10.0 0.00 0.00 0.00 48 1019.5
20260508201026 58 58 4.0 9.0 0.00 0.00 0.00 47 1019.5
20260508200018 59 94 3.0 8.0 0.00 0.00 0.00 49 1019.6
20260508195017 58 113 4.0 11.0 0.00 0.00 0.00 51 1019.6
20260508194449 59 115 2.0 7.0 0.00 0.00 0.00 48 1019.7
20260508193016 58 142 3.0 9.0 0.00 0.00 0.00 51 1019.7
20260508192016 58 103 3.0 8.0 0.00 0.00 0.00 50 1019.8
20260508191456 57 115 3.0 11.0 0.00 0.00 0.00 51 1019.8
20260508190012 56 56 3.0 11.0 0.00 0.00 0.00 51 1020.0
20260508184957 56 39 4.0 11.0 0.00 0.00 0.00 53 1020.0
20260508183929 56 113 5.0 13.0 0.00 0.00 0.00 54 1020.1
20260508182929 55 94 4.0 15.0 0.00 0.00 0.00 54 1020.1
20260508181928 56 50 4.0 12.0 0.00 0.00 0.00 54 1020.0
20260508180925 55 9 4.0 11.0 0.00 0.00 0.00 56 1020.2
20260508175927 56 92 3.0 11.0 0.00 0.00 0.00 57 1020.3
20260508175403 55 73 4.0 12.0 0.00 0.01 0.00 56 1020.3
20260508174353 55 86 4.0 12.0 0.00 0.01 0.00 56 1020.2
20260508172858 55 82 4.0 16.0 0.00 0.01 0.00 55 1019.8
20260508171858 55 121 3.0 9.0 0.00 0.02 0.00 55 1020.0
20260508170856 56 29 4.0 13.0 0.00 0.02 0.00 51 1020.0
20260508165854 58 301 4.0 12.0 0.00 0.02 0.00 36 1020.0
20260508164855 57 325 5.0 11.0 0.00 0.03 0.00 36 1020.0
20260508163854 56 317 7.0 18.0 0.00 0.03 0.00 36 1020.0
20260508163317 56 253 5.0 15.0 0.00 0.03 0.00 38 1020.1
20260508161837 55 329 2.0 10.0 0.00 0.04 0.00 48 1020.1
20260508161313 53 50 1.0 4.0 0.00 0.04 0.00 58 1020.1
20260508155835 52 94 0.0 4.0 0.00 0.05 0.00 60 1020.2
20260508154835 50 218 0.0 2.0 0.00 0.05 0.00 66 1020.5
20260508153833 48 150 2.0 4.0 0.00 0.06 0.00 68 1020.6
20260508152831 47 128 1.0 5.0 0.00 0.07 0.00 71 1020.7
20260508151831 46 93 2.0 6.0 0.00 0.08 0.00 73 1020.6
20260508150831 45 114 2.0 6.0 0.00 0.09 0.00 75 1020.7
20260508145829 45 72 2.0 7.0 0.00 0.10 0.00 78 1020.8
20260508144826 44 36 2.0 6.0 0.00 0.12 0.00 81 1020.8
20260508143824 42 87 2.0 6.0 0.00 0.15 0.00 84 1021.0
20260508142824 41 84 0.0 3.0 0.00 0.18 0.00 89 1021.1
20260508141822 40 142 1.0 5.0 0.00 0.23 0.00 90 1021.2
20260508140821 40 103 1.0 4.0 0.00 0.23 0.00 90 1021.3
20260508140239 40 119 0.0 4.0 0.00 0.23 0.00 91 1021.2
20260508134800 40 108 0.0 3.0 0.00 0.23 0.00 91 1021.5
20260508133756 39 250 0.0 2.0 0.00 0.23 0.00 92 1021.5
20260508132758 38 257 0.0 2.0 0.00 0.23 0.00 93 1021.3
20260508132730 38 241 1.0 2.0 0.00 0.23 0.00 94 1021.3
20260508130748 38 204 1.0 3.0 0.00 0.23 0.00 94 1021.2
20260508125747 37 236 0.0 3.0 0.00 0.23 0.00 94 1021.2
20260508124735 36 336 0.0 2.0 0.00 0.23 0.00 93 1021.1
20260508123732 36 315 1.0 4.0 0.00 0.23 0.00 92 1020.7
20260508122733 36 323 1.0 4.0 0.00 0.23 0.00 91 1020.5
20260508121731 36 322 1.0 5.0 0.00 0.23 0.00 90 1020.2
20260508120729 35 300 2.0 7.0 0.00 0.23 0.00 90 1020.0
20260508115728 35 195 0.0 1.0 0.00 0.23 0.00 90 1019.7
20260508114727 34 246 0.0 2.0 0.00 0.23 0.00 91 1019.6
20260508113728 34 321 0.0 2.0 0.00 0.23 0.00 90 1019.6
20260508112725 34 337 0.0 3.0 0.00 0.23 0.00 87 1019.5
20260508111725 34 274 0.0 1.0 0.00 0.23 0.00 87 1019.2
20260508110723 35 257 0.0 1.0 0.00 0.23 0.00 87 1019.3
20260508105721 35 257 0.0 5.0 0.00 0.23 0.00 86 1019.2
20260508104721 35 323 1.0 5.0 0.00 0.23 0.00 88 1019.2
20260508104158 34 79 1.0 5.0 0.00 0.23 0.00 89 1019.3
20260508102715 34 259 0.0 1.0 0.00 0.23 0.00 86 1019.3
20260508101712 35 273 0.0 1.0 0.00 0.23 0.00 86 1019.1
20260508100715 35 326 0.0 1.0 0.00 0.23 0.00 85 1019.0
20260508095713 35 198 0.0 2.0 0.00 0.23 0.00 85 1019.0
20260508094714 36 195 1.0 4.0 0.00 0.23 0.00 84 1019.0
20260508094628 36 324 0.0 2.0 0.00 0.23 0.00 83 1019.0
20260508092709 36 280 0.0 2.0 0.00 0.23 0.00 82 1019.0
20260508092152 37 319 1.0 4.0 0.00 0.23 0.00 80 1019.0
20260508091144 37 312 1.0 3.0 0.00 0.23 0.00 80 1019.1
20260508090620 38 210 0.0 1.0 0.00 0.23 0.00 80 1019.0
20260508084710 38 250 0.0 3.0 0.00 0.23 0.00 79 1019.2
20260508084122 38 198 0.0 2.0 0.00 0.23 0.00 80 1019.1
20260508082643 38 305 1.0 5.0 0.00 0.23 0.00 79 1019.1
20260508081644 39 323 1.0 3.0 0.00 0.23 0.00 78 1019.2
20260508080643 39 208 2.0 10.0 0.00 0.23 0.00 79 1019.2
20260508075643 38 299 1.0 4.0 0.00 0.23 0.00 80 1019.6
20260508074642 38 323 0.0 4.0 0.00 0.23 0.00 80 1019.6
20260508073640 38 205 0.0 1.0 0.00 0.23 0.00 80 1019.7
20260508073550 39 205 1.0 4.0 0.00 0.23 0.00 80 1019.7
20260508072113 38 6 1.0 4.0 0.00 0.23 0.00 80 1019.8
20260508070635 39 207 0.0 2.0 0.00 0.23 0.00 79 1019.8
20260508065632 40 194 0.0 1.0 0.00 0.23 0.00 77 1020.1
20260508064631 40 169 0.0 2.0 0.00 0.23 0.00 76 1020.1
20260508063629 41 161 0.0 2.0 0.00 0.23 0.00 75 1020.2
20260508062626 40 250 0.0 1.0 0.00 0.23 0.00 74 1020.1
20260508061626 42 250 1.0 4.0 0.00 0.23 0.00 71 1020.0
20260508060625 41 238 1.0 3.0 0.00 0.23 0.00 72 1020.1
20260508055622 41 328 0.0 3.0 0.00 0.23 0.23 72 1020.0
20260508054618 42 208 1.0 4.0 0.00 0.23 0.23 69 1020.1
20260508053618 42 314 0.0 3.0 0.00 0.23 0.23 69 1020.1
20260508053530 44 302 0.0 2.0 0.00 0.23 0.23 67 1020.0
20260508051612 44 326 0.0 1.0 0.00 0.23 0.23 64 1019.8
20260508051101 45 328 1.0 4.0 0.00 0.23 0.23 62 1019.6
20260508050047 45 332 1.0 5.0 0.00 0.23 0.23 63 1019.5
20260508044612 44 319 1.0 3.0 0.00 0.23 0.23 66 1019.3
20260508043607 44 166 0.0 1.0 0.00 0.23 0.23 67 1019.5
20260508042607 44 311 0.0 2.0 0.00 0.23 0.23 65 1019.3
20260508042519 44 304 0.0 1.0 0.00 0.23 0.23 66 1019.2
20260508041031 44 46 0.0 3.0 0.00 0.23 0.23 64 1019.1
20260508035557 44 46 0.0 1.0 0.00 0.23 0.23 65 1019.1
20260508034558 44 298 0.0 1.0 0.00 0.23 0.23 65 1019.1
20260508033558 44 231 0.0 3.0 0.00 0.23 0.23 66 1019.1
20260508032557 45 89 0.0 2.0 0.00 0.23 0.23 64 1019.0
20260508031556 46 204 0.0 1.0 0.00 0.23 0.23 61 1019.1
20260508030539 47 31 0.0 1.0 0.00 0.23 0.23 60 1019.2
20260508030013 47 341 0.0 2.0 0.00 0.23 0.23 59 1019.2
20260508024535 47 236 0.0 2.0 0.00 0.23 0.23 59 1019.0
20260508023535 48 301 2.0 7.0 0.00 0.23 0.23 57 1018.8
20260508023020 49 300 3.0 8.0 0.00 0.23 0.23 56 1018.8